[[{"header":{"parameterUnit":"m.s-1","parameterCategory":1,"la1":30.2991,"la2":30.254,"lo1":-89.0895,"lo2":-89.0444,"dx":0.0017,"dy":0.0017,"nx":28,"ny":28,"refTime":"2022-12-30T15:00:00:Z","depth":0,"parameterNumber":2,"parameterNumberName":"U-component_of_WINDS"},"data":[0,0,0,0,0,0,0,0,0,0,0,0,0,0,0,0,0,0,0,0,0,0,0,0,0,0,0,0,0,0,0,0,0,0,0,0,0,0,0,0,0,0,0,0,0,0,0,0,0,0,0,0,0,0,0,0,0,0,-1.1755,-1.1755,0,-1.1765,-1.1765,-1.1765,-1.1742,-1.1741,-1.174,-1.174,-1.175,-1.1751,-1.1752,0,0,0,0,0,0,0,0,0,0,0,0,0,-1.1714,-1.1715,-1.1755,-1.1755,-1.1755,-1.1765,-1.1765,-1.1765,-1.1742,-1.1741,-1.174,-1.1739,-1.175,-1.1751,-1.1752,0,0,0,0,0,0,0,0,0,0,0,0,0,-1.1729,-1.1715,-1.1755,-1.1745,-1.1744,-1.1765,-1.1765,-1.1765,-1.1742,-1.1741,-1.174,-1.1739,-1.1749,-1.1751,-1.1752,-1.1783,0,0,-1.1756,-1.1757,0,0,0,0,0,0,0,0,-1.1728,-1.173,-1.1746,-1.1746,-1.1745,-1.1751,-1.1754,-1.1771,-1.1742,-1.1743,-1.174,-1.1738,-1.1751,-1.1752,-1.1757,-1.1784,-1.1784,-1.1757,-1.1757,-1.1758,-1.1758,0,0,0,0,0,0,0,-1.1727,-1.173,-1.1759,-1.1747,-1.1746,-1.1739,-1.174,-1.1757,-1.1753,-1.1743,-1.1741,-1.1743,-1.1751,-1.1755,-1.1757,-1.1784,-1.1757,-1.1758,-1.1759,-1.1759,-1.1833,-1.1834,0,0,0,0,0,0,-1.1728,-1.1729,-1.1759,-1.1759,-1.1734,-1.1741,-1.1742,-1.175,-1.1753,-1.1752,-1.1744,-1.1741,-1.1753,-1.1755,-1.1757,-1.1791,-1.1758,-1.1759,-1.176,-1.1832,-1.1834,-1.1835,0,0,0,0,0,0,-1.1727,-1.173,-1.1758,-1.1744,-1.1747,-1.1743,-1.1752,-1.1751,-1.1756,-1.1753,-1.1753,-1.1749,-1.1753,-1.1755,-1.1776,-1.1792,-1.176,-1.1761,-1.1831,-1.1833,-1.1834,-1.1862,0,0,0,0,0,0,-1.1726,-1.173,-1.1743,-1.1744,-1.1748,-1.1778,-1.1753,-1.1752,-1.1758,-1.1756,-1.1759,-1.1758,-1.1752,-1.1774,-1.1777,-1.1793,-1.1763,-1.183,-1.1832,-1.1834,-1.186,-1.1865,-1.1869,0,0,0,0,0,-1.1724,-1.1751,-1.1744,-1.1747,-1.1763,-1.1779,-1.1781,-1.1773,-1.176,-1.1772,-1.1769,-1.1758,-1.1789,-1.1776,-1.178,-1.1796,-1.1829,-1.1831,-1.1834,-1.1858,-1.1864,-1.1868,0,0,0,0,0,0,-1.1753,-1.1751,-1.1743,-1.1771,-1.1775,-1.1775,-1.179,-1.178,-1.1789,-1.1786,-1.1776,-1.1776,-1.1799,-1.18,-1.1785,-1.1825,-1.1806,-1.181,-1.1824,-1.1829,-1.1833,-1.1833,-1.1764,0,0,0,0,0,-1.1762,-1.1775,-1.1773,-1.1798,-1.1801,-1.1795,-1.1802,-1.1795,-1.1799,-1.1801,-1.18,-1.1804,-1.1814,-1.1822,-1.1832,-1.1859,-1.1858,-1.1872,-1.1876,-1.188,-1.1883,-1.1895,-1.19,-1.1843,-1.1843,-1.1843,0,0,-1.1782,-1.1783,-1.1792,-1.1804,-1.1806,-1.1819,-1.1797,-1.1812,-1.1821,-1.1803,-1.1822,-1.1822,-1.1825,-1.1849,-1.186,-1.1851,-1.1898,-1.1883,-1.1886,-1.1887,-1.1898,-1.1903,-1.1908,-1.1845,-1.1844,-1.1844,0,0,-1.1825,-1.1828,-1.1847,-1.185,-1.1853,-1.1848,-1.1853,-1.1854,-1.1852,-1.1871,-1.1857,-1.1867,-1.1886,-1.1888,-1.1892,-1.1931,-1.192,-1.1934,-1.1958,-1.1969,-1.1974,-1.1977,-1.199,-1.1994,-1.1937,-1.1938,-1.1938,0,-1.185,-1.1869,-1.1859,-1.1874,-1.1879,-1.1862,-1.188,-1.1883,-1.189,-1.1893,-1.1882,-1.1903,-1.1904,-1.1927,-1.1936,-1.194,-1.1944,-1.1935,-1.1974,-1.1978,-1.1981,-1.1993,-1.1997,-1.1939,-1.1939,-1.1939,-1.1939,0,-1.1898,-1.1911,-1.1926,-1.1932,-1.1938,-1.1955,-1.1947,-1.1954,-1.1946,-1.1942,-1.196,-1.196,-1.1968,-1.1973,-1.1966,-1.1994,-1.1987,-1.1976,-1.1957,-1.1988,-1.1999,-1.2003,-1.1942,-1.1941,-1.194,-1.194,0,0,-1.1961,-1.1958,-1.1964,-1.1965,-1.1966,-1.1975,-1.199,-1.1997,-1.2003,-1.2007,-1.2018,-1.2033,-1.202,-1.2025,-1.2017,-1.2027,-1.2055,-1.2014,-1.2013,-1.202,-1.2083,-1.2092,-1.2097,-1.2048,-1.2049,-1.2049,-1.2082,0,-1.2002,-1.2028,-1.2018,-1.2044,-1.2055,-1.2037,-1.205,-1.2051,-1.2047,-1.2054,-1.205,-1.2059,-1.2044,-1.2045,-1.2055,-1.205,-1.2068,-1.2048,-1.2057,-1.2057,-1.2056,-1.2103,-1.2113,-1.2144,-1.2087,-1.2087,-1.2088,0,-1.2054,-1.2059,-1.2086,-1.2082,-1.2086,-1.2098,-1.2101,-1.2109,-1.2109,-1.2105,-1.2108,-1.2097,-1.211,-1.2091,-1.2107,-1.2093,-1.2096,-1.2094,-1.2095,-1.2095,-1.2074,-1.2104,-1.2154,-1.2159,-1.2095,-1.2094,-1.2094,0,-1.2096,-1.2109,-1.2126,-1.2127,-1.2123,-1.2131,-1.213,-1.2129,-1.2132,-1.2135,-1.2137,-1.2142,-1.2145,-1.2148,-1.2137,-1.2125,-1.2154,-1.2135,-1.215,-1.215,-1.2157,-1.2157,-1.2208,-1.216,-1.216,-1.216,-1.216,0,-1.2142,-1.2159,-1.2144,-1.2155,-1.2172,-1.2159,-1.2176,-1.2173,-1.2171,-1.2179,-1.2164,-1.2172,-1.2159,-1.2165,-1.2157,-1.217,-1.2172,-1.2168,-1.2165,-1.2169,-1.2169,-1.217,-1.2168,-1.2161,-1.2161,-1.2161,-1.2161,0,-1.2192,-1.2183,-1.22,-1.2193,-1.2192,-1.2205,-1.2199,-1.2208,-1.2201,-1.2212,-1.2214,-1.2203,-1.221,-1.2199,-1.2205,-1.2199,-1.2217,-1.2212,-1.2217,-1.2215,-1.223,-1.2228,-1.2284,-1.2289,-1.2239,-1.2239,-1.2239,0,-1.2222,-1.2235,-1.2229,-1.2233,-1.2232,-1.2239,-1.2242,-1.2229,-1.2233,-1.2231,-1.2239,-1.2244,-1.2247,-1.2257,-1.225,-1.2253,-1.2246,-1.2265,-1.2247,-1.2249,-1.2245,-1.2244,-1.2244,-1.2269,-1.227,-1.2271,-1.2271,0,-1.2276,-1.227,-1.2275,-1.2278,-1.2281,-1.2283,-1.2283,-1.2287,-1.2273,-1.2277,-1.2283,-1.2285,-1.2289,-1.2293,-1.2293,-1.2291,-1.2278,-1.2276,-1.228,-1.2283,-1.2285,-1.2283,-1.2226,-1.2276,-1.2275,-1.2275,-1.2275,-1.2274,-1.2316,-1.2325,-1.2321,-1.2327,-1.2325,-1.2325,-1.2332,-1.2325,-1.2329,-1.2331,-1.2323,-1.2329,-1.2325,-1.2325,-1.2323,-1.2327,-1.2318,-1.2324,-1.2325,-1.2326,-1.2328,-1.2285,-1.2327,-1.2327,-1.2327,-1.2327,-1.2327,0,-1.2368,-1.2364,-1.2369,-1.2369,-1.2372,-1.2359,-1.2357,-1.2361,-1.2367,-1.2364,-1.2367,-1.2371,-1.2374,-1.2366,-1.2367,-1.2371,-1.2365,-1.2372,-1.2371,-1.237,-1.2336,-1.2333,-1.2377,-1.2377,-1.2377,-1.2377,-1.2377,-1.2377,-1.2396,-1.2409,-1.2402,-1.2413,-1.2409,-1.2415,-1.2415,-1.2414,-1.2411,-1.2417,-1.2419,-1.2413,-1.2407,-1.2407,-1.2408,-1.2405,-1.2406,-1.2414,-1.2409,-1.2378,-1.2373,-1.2368,-1.2365,-1.2415,-1.2415,-1.2443,-1.2443,-1.2443]},{"header":{"parameterUnit":"m.s-1","parameterCategory":1,"la1":30.2991,"la2":30.254,"lo1":-89.0895,"lo2":-89.0444,"dx":0.0017,"dy":0.0017,"nx":28,"ny":28,"refTime":"2022-12-30T15:00:00:Z","depth":0,"parameterNumber":3,"parameterNumberName":"V-component_of_WINDS"},"data":[0,0,0,0,0,0,0,0,0,0,0,0,0,0,0,0,0,0,0,0,0,0,0,0,0,0,0,0,0,0,0,0,0,0,0,0,0,0,0,0,0,0,0,0,0,0,0,0,0,0,0,0,0,0,0,0,0,0,-0.5986,-0.5984,0,-0.5849,-0.5847,-0.5846,-0.5777,-0.5777,-0.5777,-0.5777,-0.5629,-0.5626,-0.5622,0,0,0,0,0,0,0,0,0,0,0,0,0,-0.618,-0.6176,-0.5986,-0.5984,-0.5983,-0.5849,-0.5847,-0.5845,-0.5777,-0.5777,-0.5777,-0.5777,-0.5631,-0.5626,-0.5621,0,0,0,0,0,0,0,0,0,0,0,0,0,-0.6074,-0.6175,-0.5986,-0.5933,-0.5926,-0.5849,-0.5847,-0.5845,-0.5777,-0.5777,-0.5777,-0.5777,-0.5632,-0.5626,-0.5621,-0.5584,0,0,-0.5603,-0.56,0,0,0,0,0,0,0,0,-0.608,-0.6067,-0.5942,-0.5936,-0.5929,-0.583,-0.5861,-0.5757,-0.5777,-0.5834,-0.5777,-0.5777,-0.5696,-0.5685,-0.5659,-0.5577,-0.5571,-0.5602,-0.5598,-0.5596,-0.5594,0,0,0,0,0,0,0,-0.6088,-0.6073,-0.5931,-0.594,-0.5932,-0.5912,-0.5897,-0.5841,-0.5766,-0.5829,-0.5823,-0.5808,-0.5692,-0.5664,-0.5655,-0.5569,-0.5602,-0.5597,-0.5593,-0.5591,-0.5447,-0.5446,0,0,0,0,0,0,-0.6105,-0.6079,-0.5936,-0.5927,-0.6007,-0.5909,-0.5892,-0.5862,-0.5767,-0.5752,-0.5809,-0.5806,-0.5675,-0.5662,-0.5649,-0.5598,-0.5596,-0.559,-0.5587,-0.5447,-0.5447,-0.5446,0,0,0,0,0,0,-0.6109,-0.6093,-0.5941,-0.6002,-0.5981,-0.5906,-0.5872,-0.5859,-0.5832,-0.5752,-0.5737,-0.5795,-0.5674,-0.5657,-0.5601,-0.5592,-0.5588,-0.5582,-0.5447,-0.5447,-0.5446,-0.5497,0,0,0,0,0,0,-0.6115,-0.6095,-0.6083,-0.6002,-0.5978,-0.5898,-0.5872,-0.5856,-0.5822,-0.5817,-0.5735,-0.5721,-0.5673,-0.561,-0.5595,-0.5584,-0.5578,-0.5448,-0.5447,-0.5447,-0.5496,-0.5499,-0.5501,0,0,0,0,0,-0.6122,-0.6101,-0.6082,-0.6065,-0.5962,-0.5898,-0.5884,-0.5831,-0.5822,-0.5807,-0.5755,-0.5724,-0.5596,-0.5605,-0.5587,-0.5574,-0.5448,-0.5447,-0.5447,-0.5495,-0.5498,-0.5501,0,0,0,0,0,0,-0.6181,-0.609,-0.6068,-0.6021,-0.5968,-0.5887,-0.5867,-0.5836,-0.5783,-0.578,-0.5714,-0.5696,-0.5644,-0.5603,-0.5615,-0.5532,-0.5518,-0.5514,-0.5561,-0.5563,-0.5566,-0.5576,-0.5573,0,0,0,0,0,-0.6189,-0.6147,-0.6069,-0.6035,-0.6009,-0.5943,-0.5913,-0.5877,-0.5818,-0.5795,-0.5739,-0.5681,-0.5627,-0.5593,-0.5539,-0.549,-0.5469,-0.5472,-0.5474,-0.5477,-0.5473,-0.5441,-0.544,-0.5444,-0.5444,-0.5444,0,0,-0.6204,-0.6149,-0.6126,-0.6045,-0.6,-0.5955,-0.5924,-0.5879,-0.5844,-0.5787,-0.573,-0.5687,-0.5617,-0.5563,-0.5536,-0.5527,-0.5468,-0.5476,-0.5478,-0.5474,-0.544,-0.544,-0.544,-0.5444,-0.5444,-0.5444,0,0,-0.6208,-0.6164,-0.613,-0.6085,-0.6017,-0.5972,-0.5964,-0.5887,-0.5856,-0.5799,-0.5754,-0.571,-0.562,-0.5571,-0.5535,-0.5518,-0.5486,-0.5502,-0.5515,-0.5484,-0.5483,-0.5483,-0.5474,-0.5473,-0.55,-0.55,-0.55,0,-0.6235,-0.6169,-0.6115,-0.6072,-0.6036,-0.5984,-0.5946,-0.5905,-0.5822,-0.5797,-0.5788,-0.5672,-0.5622,-0.5554,-0.555,-0.5523,-0.5509,-0.5511,-0.5488,-0.5487,-0.5486,-0.5477,-0.5474,-0.5502,-0.5502,-0.5502,-0.5501,0,-0.6203,-0.6158,-0.6138,-0.6061,-0.6023,-0.5983,-0.592,-0.5887,-0.5853,-0.5809,-0.5748,-0.5686,-0.5618,-0.5599,-0.5565,-0.5525,-0.5521,-0.5502,-0.5486,-0.5489,-0.5479,-0.5476,-0.5505,-0.5505,-0.5504,-0.5503,0,0,-0.6242,-0.6135,-0.6129,-0.6092,-0.6012,-0.5974,-0.593,-0.5865,-0.5837,-0.5781,-0.574,-0.5664,-0.5644,-0.5603,-0.5563,-0.5536,-0.5523,-0.5518,-0.5516,-0.552,-0.5472,-0.5487,-0.5484,-0.5502,-0.5501,-0.55,-0.5477,0,-0.6234,-0.6156,-0.6105,-0.6045,-0.6001,-0.5949,-0.591,-0.5855,-0.5811,-0.5764,-0.5714,-0.5661,-0.5641,-0.5615,-0.5586,-0.5531,-0.5513,-0.5532,-0.5459,-0.5458,-0.5478,-0.5479,-0.5495,-0.5477,-0.5473,-0.5473,-0.5472,0,-0.6215,-0.6162,-0.6099,-0.6022,-0.6001,-0.5967,-0.5902,-0.5859,-0.5794,-0.5763,-0.5717,-0.5676,-0.5623,-0.5613,-0.5537,-0.5552,-0.5518,-0.5486,-0.5484,-0.5474,-0.5465,-0.5468,-0.547,-0.5467,-0.5466,-0.5467,-0.5467,0,-0.6247,-0.6159,-0.611,-0.608,-0.599,-0.5967,-0.5927,-0.5862,-0.5826,-0.5767,-0.5742,-0.5678,-0.5643,-0.5592,-0.5533,-0.5532,-0.5462,-0.5448,-0.5433,-0.5434,-0.542,-0.5422,-0.5416,-0.5402,-0.5402,-0.5402,-0.5402,0,-0.6243,-0.6206,-0.6123,-0.6092,-0.6047,-0.5988,-0.5944,-0.59,-0.5842,-0.5799,-0.5749,-0.5709,-0.5635,-0.5585,-0.5538,-0.5481,-0.5465,-0.5437,-0.5425,-0.5441,-0.5444,-0.5417,-0.5416,-0.5401,-0.5401,-0.5401,-0.5401,0,-0.6271,-0.6215,-0.6157,-0.6076,-0.6054,-0.6025,-0.5953,-0.592,-0.5873,-0.5819,-0.5802,-0.5728,-0.5666,-0.5602,-0.5518,-0.5486,-0.543,-0.5414,-0.5453,-0.5446,-0.5433,-0.5435,-0.5409,-0.5401,-0.5394,-0.5395,-0.5395,0,-0.6272,-0.6243,-0.6158,-0.6127,-0.609,-0.604,-0.6003,-0.5941,-0.5903,-0.5825,-0.58,-0.5735,-0.5679,-0.5582,-0.5518,-0.5452,-0.5433,-0.5428,-0.5423,-0.5439,-0.543,-0.5432,-0.5427,-0.543,-0.5431,-0.5431,-0.5431,0,-0.6279,-0.6252,-0.6202,-0.614,-0.6097,-0.6045,-0.5991,-0.5968,-0.5895,-0.5854,-0.5791,-0.5749,-0.5662,-0.5597,-0.5523,-0.5478,-0.5441,-0.5434,-0.5426,-0.5442,-0.5465,-0.545,-0.5457,-0.5434,-0.5434,-0.5434,-0.5434,-0.5434,-0.6292,-0.6262,-0.6198,-0.6142,-0.6096,-0.6046,-0.6009,-0.5958,-0.5906,-0.5833,-0.5798,-0.5734,-0.5666,-0.5563,-0.5519,-0.5465,-0.5455,-0.5446,-0.5442,-0.5441,-0.5443,-0.5475,-0.5452,-0.5452,-0.5452,-0.5451,-0.5451,0,-0.6294,-0.6251,-0.62,-0.6127,-0.6082,-0.6054,-0.5991,-0.5955,-0.59,-0.5841,-0.5787,-0.5713,-0.5648,-0.5579,-0.5509,-0.5479,-0.546,-0.5463,-0.5464,-0.5453,-0.5458,-0.547,-0.5479,-0.5479,-0.5479,-0.5479,-0.5479,-0.5479,-0.6291,-0.6238,-0.6203,-0.6125,-0.608,-0.6019,-0.5986,-0.5938,-0.589,-0.581,-0.5757,-0.5713,-0.5648,-0.5573,-0.5511,-0.5492,-0.5467,-0.5475,-0.545,-0.5455,-0.5453,-0.5451,-0.5463,-0.547,-0.547,-0.545,-0.545,-0.545]}]]